Location: Newark
(35.8833°N, 14.5000°E)
Time: 23:17:22
(UTC+00:00)

UNISAT 6 - Pass Details

Date: 25 May 2019
Orbit: 606 x 690 km, 97.8° (Epoch: 18 June)

Event Time Altitude Azimuth Distance (km) Brightness Sun altitude
Rises 20:53:28 0° 356° (N) 2,913 ? -25.8°
Reaches altitude 10° 20:56:04 10° 340° (NNW) 1,989 ? -26.1°
Maximum altitude 20:59:20 21° 291° (WNW) 1,374 ? -26.4°
Enters shadow 21:02:01 12° 247° (WSW) 1,800 ? -26.7°
